Regional Weather Roundup
Issued by NWS

Home | Current Version | Previous Version | Graphics & Text | Print | Product List | Glossary On
Versions: 1 2 3 4 5 6 7 8 9 10 11 12 13 14 15 16 17 18 19 20 21 22 23 24 25 26 27 28 29 30 31 32 33 34 35 36 37 38 39 40 41 42 43 44 45 46 47 48 49 50
521
ASUS44 KMEG 171210
RWRTN
TENNESSEE HOURLY STATE WEATHER ROUNDUP
NATIONAL WEATHER SERVICE MEMPHIS TN
600 AM CST FRI NOV 17 2017

TNZ002-004-019-021-049-052-054-088>092-171300-
WEST TENNESSEE

CITY           SKY/WX    TMP DP  RH WIND       PRES   REMARKS
MEMPHIS INTL   MOCLDY    50  42  74 SE7       30.11F
NWS MEMPHIS      N/A     44 N/A N/A MISG        N/A
JACKSON        CLEAR     39  37  92 CALM      30.16S
DYERSBURG      CLEAR     38  37  97 E7        30.13F FOG     WCI  33
SOMERVILLE     CLEAR     43  41  93 VRB5      30.12F
COVINGTON      MOCLDY    37  37 100 SE5       30.13F WCI  34
UNION CITY     CLEAR     32  32 100 CALM      30.14S FOG
BOLIVAR        CLEAR     34  34 100 CALM      30.15S
PARIS          CLEAR     36  34  93 E7        30.16R FOG     WCI  30
HUNTINGDON     CLOUDY    34  34 100 CALM      30.16R FOG
LEXINGTON      CLEAR     34  32  93 CALM      30.17S FOG
SELMER         CLEAR     36  34  93 CALM      30.16S
SAVANNAH       CLEAR     32  32 100 CALM      30.18R
$$

TNZ008-025-027-028-033-062-065-066-171300-
NORTH MIDDLE TENNESSEE

CITY           SKY/WX    TMP DP  RH WIND       PRES   REMARKS
NASHVILLE      MOCLDY    35  33  92 CALM      30.20S FOG
PORTLAND       FOG       32  32 100 CALM      30.19S VSB 0
CLARKSVILLE    CLEAR     31  28  89 E5        30.18F FOG     WCI  26
SMYRNA         FOG       28  27  96 CALM      30.21S VSB 1/4
COOKEVILLE     PTCLDY    27  27 100 CALM      30.19R FOG
GALLATIN       CLEAR     32  32 100 CALM      30.22F FOG
CROSSVILLE     FOG       30  29  96 CALM      30.18R VSB<1/4
$$

TNZ061-075-076-078-094-096-097-171300-
SOUTH MIDDLE TENNESSEE

CITY           SKY/WX    TMP DP  RH WIND       PRES   REMARKS
FAYETTEVILLE   CLEAR     37  37 100 N5        30.17R WCI  34
TULLAHOMA      FOG       30  28  93 CALM      30.17R VSB 1/2
WINCHESTER     CLEAR     28  28 100 CALM      30.18R
MCMINNVILLE    CLEAR     32  30  93 N3        30.18S
COLUMBIA       FOG       30  30 100 CALM      30.17S VSB 0
SHELBYVILLE    CLEAR     30  30 100 CALM      30.19R FOG
$$

TNZ017-018-042-046-047-171300-
NORTHEAST TENNESSEE

CITY           SKY/WX    TMP DP  RH WIND       PRES   REMARKS
TRI CITIES     CLOUDY    30  29  96 CALM      30.22R
ELIZABETHTON   CLEAR     34  30  86 CALM      30.22R
$$

TNZ012-013-036-069-073-074-171300-
CENTRAL EAST TENNESSEE

CITY           SKY/WX    TMP DP  RH WIND       PRES   REMARKS
KNOXVILLE      PTCLDY    38  37  97 N6        30.19R WCI  33
OAK RIDGE      CLEAR     39  37  92 NE3       30.22R
DOWNTOWN KNOXV FOG       36  36 100 CALM      30.21R VSB 3/4
GATLINBURG     CLEAR     30  30 100 CALM      30.21R
MORRISTOWN     CLEAR     37  34  87 NE3       30.20R
JACKSBORO      FOG       30  30 100 CALM      30.25S VSB 0
$$

TNZ083-085-099-171300-
SOUTHEAST TENNESSEE

CITY           SKY/WX    TMP DP  RH WIND       PRES   REMARKS
CHATTANOOGA    PTCLDY    37  34  89 S3        30.20R
$$

SKY/WX REPORTED AS FAIR MEANS FEW OR NO CLOUDS BELOW
12 THOUSAND FEET.





USA.gov is the U.S. government's official web portal to all federal, state and local government web resources and services.